Vertical_Velocity
1 1 1 0 -1 -0 -2 -1 -2 -1 -3 -2 -1 -1 -1 -3 0 -0 0 -1 0 -0 0 -1 -1 -0 0 -0 -1 -2 0 -0 -3 1 -6 -0 1 -1 1 -2 -1 -0 0 -2 -5
-2 -1 -2 0 2 -2 1 -1 -1 -3 -2 -2 -1 -2 -1 -4 1 2 0 -1 -0 -0 -0 0 -1 -1 0 1 1 -0 1 -4 -2 -1 -1 -0 3 3 2 -2 -9 -3 -1 0 4
-2 -0 -1 -4 -2 2 -2 -2 -1 -2 -1 -2 -1 0 -2 -3 -2 0 -1 2 -0 -1 -1 -2 -1 -2 -1 0 1 1 -1 -2 -3 -2 3 -1 -2 6 3 -4 -4 -0 -9 -2 -5
-0 0 0 -0 -1 -1 1 -1 -2 -2 -3 -2 2 -0 -2 -5 1 1 -1 0 2 -0 -2 -1 -1 -2 -1 0 0 3 -1 1 -1 -0 -1 -0 -1 -4 5 -14 0 -3 -0 -0 -3
-0 -3 0 -1 1 -1 -0 2 -3 1 -2 -3 -4 1 -1 -1 -4 2 -0 -2 -1 2 -0 -2 -1 -1 -0 -0 -0 2 -1 0 -0 -2 -1 4 -3 -3 -6 -2 2 3 1 -2 3
-1 -0 1 3 -2 -2 -1 3 -3 -2 -1 -3 -3 -3 2 -1 -1 -0 3 -2 1 -1 -0 0 -2 -3 -1 -0 -0 1 0 -3 -3 -6 1 10 -8 10 -14 13 -1 3 1 0 1
-7 0 -1 0 -1 -0 0 -2 3 -1 -4 -0 -5 -4 0 -8 0 -2 -0 1 3 0 -1 -1 2 2 -2 0 -1 -1 1 -2 -1 -1 -2 1 -2 -1 6 0 3 -2 -1 0 -1
0 -1 -0 -1 -1 -1 -1 -1 -1 4 -5 -1 -2 -2 -10 2 1 3 -1 2 2 0 2 1 -1 2 2 1 -1 1 -0 -1 -1 -1 -0 1 -8 -7 2 -3 -7 -4 -3 -4 -6
-1 2 0 -3 -3 -4 1 2 -2 1 -2 -0 -3 -1 -9 3 1 2 2 2 2 1 2 -0 1 1 -1 -1 -2 -2 0 -0 -6 1 -0 1 -4 -6 -4 -1 -4 -5 -2 -1 -6
-1 5 2 0 -0 -6 -2 2 -2 2 -1 3 -2 1 1 1 1 3 1 2 2 2 1 -0 -2 -1 -1 -0 -0 -0 -0 -1 0 -6 -2 -3 -5 -2 -5 2 -2 -4 -3 -1 1
7 -2 5 1 4 -6 2 -3 -2 5 -4 -1 -3 -2 -3 3 3 3 2 -0 2 -0 -1 -0 -3 -0 0 -0 -0 1 1 1 -3 -3 6 -0 -1 -4 -5 2 -1 -3 4 -0 -5
3 6 -3 -0 -1 -1 -5 -0 3 -0 -5 -2 1 -1 -2 -1 -1 3 5 -1 -3 -0 -0 -3 -1 0 0 -0 0 0 1 -2 -5 -2 6 -2 -8 -4 -0 -1 6 0 -3 -4 -6
6 3 -8 -2 -2 -2 3 0 -1 -1 1 -1 -2 0 -7 1 -0 1 3 1 -2 -1 -0 -1 2 -0 -1 -0 -1 1 -0 -0 4 -3 -2 1 -6 1 -0 -3 -1 1 7 5 3
6 2 -8 3 -2 -3 1 -2 -3 1 -0 -5 1 1 7 -0 0 2 0 -0 -2 -1 -0 0 0 0 -1 -0 1 0 1 1 0 1 1 1 -11 -2 0 -0 -2 -3 -5 -4 -7
1 1 -1 5 -6 -1 9 -3 2 -4 2 3 -1 7 6 -5 -2 2 -3 -2 -0 0 -2 4 -0 -0 -1 1 0 1 1 3 1 2 4 -1 8 3 -3 -3 -3 -3 -3 -2 -2
1 3 -5 2 2 1 -8 9 -7 -6 -8 0 1 -0 -3 1 1 3 -5 -5 2 -2 -1 2 1 -1 1 0 -1 1 1 1 -0 1 3 2 4 -8 1 4 -3 -3 -3 -3 -7
2 5 0 3 -5 -6 -3 -10 -5 0 -1 2 -1 -0 -1 1 0 -2 -2 -3 -2 0 -1 -1 -0 -0 -0 -2 -1 -4 -3 -2 -1 2 0 -0 0 -5 -2 -0 4 3 0 0 -2
8 9 -6 13 6 -5 -1 1 1 -5 -1 1 -2 -0 -3 -1 1 1 -0 0 -1 -2 -1 -0 4 -0 0 0 3 1 1 -0 0 0 -3 -2 -1 -5 2 1 3 4 7 1 2
4 2 3 -6 8 -9 -0 1 -11 -2 -5 -2 1 -2 1 0 -6 -2 -0 -1 -0 -0 -2 -0 0 -1 -1 0 2 1 -1 4 1 0 6 -2 -4 -9 -2 -5 -7 -2 -5 0 1
-6 -2 -1 12 9 6 1 -4 -1 -0 -1 1 -3 -4 -1 0 -2 -2 -1 0 0 0 0 1 -1 0 -0 -1 0 1 1 4 1 0 -1 -4 -2 -4 -6 -4 -3 -5 -0 -1 0
15 -8 -10 16 7 7 -3 -4 -0 -1 -1 -2 -1 -1 -1 -2 -2 0 1 5 0 1 -0 -1 0 3 1 0 -1 2 1 1 2 1 1 0 -3 2 3 4 3 1 2 -0 -0
-7 -4 -13 -4 -2 -0 -1 -3 -1 1 1 -0 -3 -2 -2 -0 -0 -0 -2 -3 0 -2 -1 -0 -2 -0 -2 -1 -1 -1 -1 -1 1 -2 -0 2 -7 1 2 3 0 0 2 1 5
1 -4 21 10 -2 2 -0 0 -1 1 0 0 -0 -2 -0 -1 -5 -2 0 3 -1 -1 -3 -1 2 0 5 4 2 0 1 -0 -0 2 -4 4 -6 -0 -2 -4 -0 -0 -1 1 -3
-18 -1 8 11 3 -4 -0 0 1 1 -0 -0 -1 -2 -1 -0 -0 -0 1 2 0 -1 0 -1 0 -1 -4 0 -1 1 0 -0 2 3 -2 -5 -11 -7 -3 -0 -2 -1 1 1 1
-7 -0 -8 -1 5 0 0 -2 0 1 -1 0 2 -2 -4 -1 1 0 1 2 1 4 -1 -1 -1 1 -2 -1 2 0 0 -1 2 -4 7 -6 3 1 3 4 4 6 -0 -3 -2
-10 -10 9 0 2 1 -0 -1 -3 3 -6 2 -2 1 -1 -3 -6 -3 -5 -1 -4 2 -0 0 -0 0 -1 0 0 0 0 -0 0 -1 0 1 -4 5 0 -1 -4 1 -0 -0 -1
14 1 -15 0 3 3 -4 -0 0 -3 1 -4 -7 -4 -0 -1 -1 -0 -1 -2 -5 -4 0 -2 -0 1 -1 0 -0 3 -1 -0 -1 0 1 2 4 0 -6 -2 2 -2 1 1 -1
Height
1527 1527 1526 1525 1524 1523 1522 1522 1521 1519 1518 1517 1515 1514 1512 1510 1508 1505 1504 1505 1504 1505 1507 1508 1510 1510 1511 1512 1514 1516 1519 1517 1514 1516 1503 1503 1504 1504 1505 1504 1504 1503 1502 1500 1496
1526 1526 1524 1524 1522 1521 1520 1520 1519 1518 1517 1515 1514 1512 1510 1508 1506 1504 1505 1503 1504 1506 1507 1507 1509 1511 1512 1512 1513 1514 1516 1512 1511 1508 1504 1502 1503 1503 1504 1502 1500 1499 1497 1497 1494
1523 1523 1523 1522 1520 1519 1518 1517 1517 1516 1515 1514 1513 1511 1508 1507 1506 1505 1504 1505 1504 1505 1506 1507 1507 1509 1511 1513 1512 1513 1508 1509 1507 1506 1506 1503 1498 1501 1499 1497 1498 1494 1493 1493 1491
1519 1520 1519 1518 1518 1517 1517 1516 1515 1514 1513 1512 1511 1509 1507 1506 1509 1504 1504 1505 1506 1505 1505 1506 1507 1508 1511 1511 1511 1512 1509 1509 1507 1506 1504 1502 1499 1493 1495 1492 1493 1493 1491 1489 1489
1515 1515 1516 1515 1515 1515 1514 1513 1512 1512 1512 1510 1509 1508 1506 1505 1504 1504 1503 1504 1505 1505 1505 1504 1505 1506 1508 1510 1510 1510 1509 1508 1507 1505 1502 1499 1497 1495 1489 1488 1488 1488 1488 1487 1486
1511 1511 1513 1513 1512 1512 1512 1512 1510 1510 1509 1508 1507 1507 1505 1505 1500 1502 1502 1503 1504 1504 1505 1505 1504 1504 1505 1507 1508 1508 1508 1505 1502 1499 1497 1494 1491 1494 1487 1486 1486 1485 1484 1484 1482
1507 1508 1509 1511 1510 1509 1510 1510 1508 1507 1507 1506 1505 1505 1503 1500 1498 1500 1501 1502 1502 1503 1503 1505 1505 1504 1503 1504 1505 1505 1505 1501 1496 1497 1495 1493 1490 1488 1487 1486 1484 1483 1481 1480 1479
1502 1505 1507 1508 1506 1505 1506 1507 1505 1504 1504 1503 1503 1503 1500 1498 1498 1499 1499 1501 1500 1501 1502 1503 1504 1506 1505 1504 1503 1502 1505 1500 1494 1496 1494 1493 1489 1488 1485 1485 1483 1479 1478 1477 1475
1498 1500 1501 1503 1502 1502 1503 1503 1503 1502 1501 1500 1501 1501 1498 1497 1498 1498 1499 1499 1498 1499 1500 1501 1503 1506 1506 1506 1506 1507 1505 1504 1499 1494 1495 1495 1492 1489 1486 1483 1482 1479 1474 1473 1471
1494 1495 1496 1498 1499 1501 1502 1501 1500 1499 1497 1498 1498 1503 1497 1497 1497 1497 1497 1498 1499 1498 1499 1500 1503 1507 1509 1506 1507 1508 1510 1508 1505 1496 1495 1494 1489 1490 1487 1483 1478 1475 1472 1470 1468
1488 1491 1492 1493 1494 1496 1499 1501 1503 1499 1493 1496 1496 1495 1496 1497 1495 1496 1495 1498 1498 1499 1499 1501 1503 1508 1510 1508 1509 1510 1511 1507 1503 1500 1496 1488 1488 1484 1481 1479 1475 1470 1469 1469 1466
1482 1484 1487 1490 1492 1494 1496 1500 1498 1497 1492 1490 1493 1493 1494 1496 1496 1496 1495 1497 1499 1503 1503 1504 1505 1509 1509 1508 1509 1508 1509 1508 1504 1501 1496 1484 1480 1474 1476 1476 1476 1475 1473 1469 1463
1477 1478 1482 1485 1488 1492 1494 1496 1496 1497 1495 1488 1486 1489 1492 1495 1495 1496 1496 1497 1500 1503 1504 1506 1511 1511 1509 1511 1508 1509 1512 1513 1513 1506 1496 1486 1466 1474 1476 1479 1477 1473 1472 1469 1467
1471 1474 1477 1482 1489 1489 1490 1495 1494 1495 1499 1487 1485 1484 1487 1492 1495 1495 1496 1500 1503 1506 1506 1508 1513 1513 1513 1513 1512 1509 1514 1512 1508 1504 1498 1495 1477 1470 1479 1480 1480 1479 1475 1470 1465
1465 1470 1474 1478 1482 1487 1489 1494 1495 1496 1494 1485 1486 1485 1484 1489 1491 1496 1497 1498 1504 1506 1507 1510 1511 1514 1514 1515 1512 1512 1511 1508 1505 1502 1500 1496 1497 1468 1479 1482 1483 1481 1478 1473 1468
1462 1465 1470 1475 1479 1482 1488 1493 1494 1497 1492 1484 1482 1485 1486 1488 1490 1492 1497 1500 1504 1506 1508 1512 1512 1514 1513 1514 1515 1514 1510 1502 1505 1504 1498 1507 1505 1474 1482 1486 1483 1483 1480 1475 1469
1457 1461 1465 1468 1475 1480 1485 1493 1494 1492 1475 1483 1483 1484 1486 1491 1492 1495 1502 1505 1508 1508 1512 1513 1515 1514 1513 1512 1515 1514 1505 1495 1497 1498 1494 1503 1497 1482 1481 1482 1481 1480 1477 1474 1469
1451 1457 1460 1465 1474 1478 1485 1490 1490 1477 1474 1477 1482 1486 1488 1491 1499 1501 1506 1509 1509 1510 1516 1516 1512 1513 1515 1516 1519 1518 1515 1512 1516 1512 1503 1502 1495 1483 1484 1482 1481 1479 1476 1471 1466
1445 1453 1458 1462 1469 1477 1484 1483 1468 1472 1471 1473 1480 1486 1490 1493 1497 1502 1508 1510 1509 1512 1510 1513 1513 1513 1514 1516 1519 1520 1520 1521 1521 1521 1517 1499 1492 1485 1482 1482 1484 1480 1476 1471 1467
1437 1449 1457 1464 1466 1475 1480 1470 1469 1470 1469 1472 1471 1481 1490 1494 1495 1498 1504 1509 1510 1513 1513 1514 1512 1513 1514 1516 1520 1520 1523 1521 1525 1531 1520 1499 1494 1484 1486 1487 1486 1482 1480 1477 1474
1432 1444 1459 1463 1466 1471 1475 1472 1467 1469 1469 1471 1473 1480 1487 1491 1493 1496 1502 1509 1510 1513 1512 1512 1512 1516 1516 1515 1517 1523 1523 1525 1525 1524 1514 1505 1486 1495 1496 1493 1488 1489 1486 1482 1479
1426 1442 1456 1460 1467 1469 1467 1467 1465 1468 1467 1469 1471 1476 1484 1488 1491 1496 1499 1504 1508 1510 1510 1510 1514 1517 1514 1514 1517 1520 1520 1525 1524 1524 1516 1513 1492 1497 1496 1494 1492 1491 1488 1486 1482
1422 1442 1451 1459 1460 1464 1464 1464 1463 1465 1466 1468 1471 1473 1481 1486 1492 1496 1499 1504 1506 1508 1510 1510 1515 1516 1512 1516 1518 1517 1519 1519 1523 1524 1511 1510 1489 1491 1494 1494 1494 1492 1490 1486 1484
1423 1434 1450 1456 1454 1454 1458 1459 1462 1464 1465 1465 1470 1473 1480 1487 1490 1497 1500 1506 1505 1506 1506 1510 1512 1510 1505 1509 1515 1517 1517 1518 1518 1513 1502 1499 1489 1494 1498 1496 1494 1492 1491 1489 1485
1413 1421 1425 1439 1449 1450 1453 1453 1457 1461 1463 1465 1469 1472 1476 1487 1491 1494 1498 1503 1506 1505 1507 1510 1512 1513 1511 1510 1511 1511 1513 1514 1514 1509 1506 1494 1498 1501 1499 1496 1495 1493 1490 1488 1484
1405 1411 1425 1430 1441 1448 1449 1450 1449 1457 1459 1464 1466 1474 1477 1480 1480 1487 1491 1499 1500 1505 1509 1510 1514 1515 1511 1507 1508 1508 1510 1511 1508 1505 1506 1502 1496 1502 1499 1497 1496 1494 1492 1489 1486
1399 1405 1415 1431 1436 1443 1441 1445 1448 1452 1461 1461 1466 1474 1478 1481 1482 1484 1490 1495 1498 1503 1507 1512 1512 1509 1505 1503 1502 1505 1507 1508 1508 1511 1511 1502 1503 1502 1498 1497 1497 1496 1493 1490 1487